Location: Bakov nad Jizerou
(50.4784°N, 14.9394°E)
Time: 09:32:52
(UTC+00:00)

Cosmos-2242 - Pass Details

Date: 16 June 2021
Orbit: 590 x 617 km, 82.5° (Epoch: 04 August)

Event Time Altitude Azimuth Distance (km) Brightness Sun altitude
Rises 23:11:52 0° 352° (N) 2,903 8.2 -16.1°
Reaches altitude 10° 23:14:09 10° 357° (N) 1,994 7.0 -16.1°
Maximum altitude 23:18:31 58° 77° (ENE) 724 3.4 -16.0°
Enters shadow 23:21:06 23° 149° (SSE) 1,317 4.3 -16.0°
